Погода в Полдневой

Россия / Свердловская область     56°17′51″N   60°17′04″E
темп.,
°C
ветер,
м/с
пор.,
м/с
влажн.,
%
обл.,
%
осадки,
мм/ч
давл.,
гПа
погр.,
м
13 мая, чт
чт1323:00+14ю00576 0.0 102710
02:00+12юз11649 0.0 102710
05:00+11з116354 0.0 102810
08:00+18сз244968 0.0 1028247
11:00+23ссз343521 0.0 10271446
14:00+25сз34275 0.0 10262087
17:00+26ссз34278 0.0 10252241
20:00+21ссз11455 0.0 102611
14 мая, пт
пт1423:00+16з11545 0.0 102711
02:00+14з115957 0.0 102711
05:00+14зюз11620 0.0 102711
08:00+20зюз23465 0.0 1027206
11:00+25зюз23335 0.0 10262003
14:00+27з45275 0.0 10243015
17:00+26з46284 0.0 10242669
20:00+21з37425 0.0 1024161
15 мая, сб
сб1523:00+16з26555 0.0 1024112
02:00+15зюз31066100 0.0 1024182
05:00+15зюз3116870 0.0 1024214
08:00+20зюз4105373 0.0 1023378
11:00+25зюз583565 0.0 10221290
14:00+26з6930100 0.0 10211706
17:00+27з592858 0.0 10212061
20:00+23з411406 0.0 1021553
16 мая, вс
вс1623:00+18з3115785 0.0 1021220
02:00+17з3106162 0.0 1021203
05:00+15зюз39685 0.0 1022157
08:00+21зюз48475 0.0 1021302
11:00+26з46306 0.0 10201211
14:00+28з46245 0.0 10202707
17:00+28зюз57255 0.0 10193140
20:00+23зюз25445 0.0 101886
17 мая, пн
пн1723:00+17юз385948 0.0 1019135
02:00+16юз396811 0.0 1018153
05:00+15юз39720 0.0 1018152
08:00+21юз4115199 0.0 1018430
11:00+26зюз511308 0.0 10162622
14:00+27з7102597 0.0 10153495
17:00+27з6113054 0.0 10143209
20:00+22зсз4104516 0.0 1014879